Weather History for Manteo, NC

Change the Weather History Date:

Wednesday, March 19, 2014

  Actual Average Record
Temperature  
Mean Temperature 51 °F -  
Max Temperature 59 °F 55 °F 80 °F (1974)
Min Temperature 43 °F 43 °F 30 °F (1967)
Degree Days  
Heating Degree Days 14    
Growing Degree Days 1 (Base 50)    
Moisture  
Dew Point 49 °F    
Average Humidity 95    
Maximum Humidity 100    
Minimum Humidity 76    
Precipitation  
Precipitation 0.10 in - - ()
Sea Level Pressure  
Sea Level Pressure 30.04 in    
Wind  
Wind Speed 12 mph (NNE)    
Max Wind Speed 17 mph    
Max Gust Speed 25 mph    
Visibility 6 miles    
Events Rain    
Averages and records for this station are not official NWS values.
T = Trace of Precipitation, MM = Missing Value Source: NWS Daily Summary

Daily Weather History Graph

Daily Weather History Graph

Search for Another Location

Airport:

Trip Planner

Search our weather history database for the weather conditions in past years. The results will help you decide how hot, cold, wet, or windy it might be!

Date:

Astronomy

Mar. 19, 2014 Rise Set
Actual Time 7:07 AM EDT 7:13 PM EDT
Civil Twilight 6:42 AM EDT 7:39 PM EDT
Nautical Twilight 6:12 AM EDT 8:09 PM EDT
Astronomical Twilight 5:42 AM EDT 8:39 PM EDT
Moon 10:22 PM EDT (3/19) 8:38 AM EDT (3/19)
Length of Visible Light 12h 56m
Length of Day
12h 05m
Waning Gibbous, 91% of the Moon is Illuminated
Mar 19
Waning Gibbous
Mar 23
Last Quarter
Mar 30
New
Apr 7
First Quarter
Apr 15
Full

Hourly Weather History & Observations

Time (EDT) Temp. Windchill Dew Point Humidity Pressure Visibility Wind Dir Wind Speed Gust Speed Precip Events Conditions
12:15 AM 43.7 °F 36.0 °F 42.4 °F 95% 30.06 in 7.0 mi NNE 17.3 mph 21.9 mph N/A   Overcast
12:35 AM 43.7 °F 36.0 °F 42.4 °F 95% 30.06 in 5.0 mi NNE 17.3 mph 25.3 mph N/A   Overcast
12:55 AM 43.7 °F 36.3 °F 42.4 °F 95% 30.06 in 7.0 mi NNE 16.1 mph - N/A   Overcast
1:15 AM 44.1 °F 36.8 °F 42.8 °F 95% 30.06 in 5.0 mi NNE 16.1 mph 24.2 mph N/A   Overcast
1:35 AM 43.9 °F 36.2 °F 43.0 °F 97% 30.07 in 5.0 mi North 17.3 mph 20.7 mph N/A   Overcast
1:55 AM 44.1 °F 37.1 °F 43.2 °F 97% 30.08 in 5.0 mi North 15.0 mph 20.7 mph N/A   Overcast
2:15 AM 44.2 °F 37.3 °F 43.3 °F 97% 30.08 in 7.0 mi North 15.0 mph 20.7 mph N/A   Overcast
2:35 AM 44.2 °F 37.3 °F 43.3 °F 97% 30.08 in 5.0 mi NNE 15.0 mph - N/A   Overcast
2:55 AM 44.4 °F 37.5 °F 43.5 °F 97% 30.08 in 5.0 mi NNE 15.0 mph 20.7 mph N/A   Overcast
3:15 AM 44.2 °F 37.0 °F 43.3 °F 97% 30.08 in 7.0 mi NNE 16.1 mph 20.7 mph N/A   Overcast
3:35 AM 44.2 °F 37.6 °F 43.7 °F 98% 30.07 in 7.0 mi NNE 13.8 mph 21.9 mph N/A   Overcast
3:55 AM 44.1 °F 36.8 °F 43.5 °F 98% 30.06 in 7.0 mi NNE 16.1 mph - N/A   Overcast
4:15 AM 43.7 °F 36.6 °F 43.2 °F 98% 30.06 in 5.0 mi NNE 15.0 mph - N/A   Overcast
4:35 AM 43.7 °F 36.0 °F 43.2 °F 98% 30.06 in 7.0 mi NNE 17.3 mph - N/A   Overcast
4:55 AM 43.3 °F 35.8 °F 42.8 °F 98% 30.06 in 5.0 mi NNE 16.1 mph - N/A   Overcast
5:15 AM 43.7 °F 36.6 °F 43.0 °F 97% 30.08 in 5.0 mi NNE 15.0 mph - N/A   Overcast
5:35 AM 44.1 °F 37.1 °F 43.3 °F 97% 30.08 in 7.0 mi NNE 15.0 mph 18.4 mph N/A   Overcast
5:55 AM 44.1 °F 37.1 °F 43.3 °F 97% 30.09 in 5.0 mi NNE 15.0 mph - N/A   Overcast
6:15 AM 44.1 °F 37.1 °F 43.7 °F 99% 30.10 in 5.0 mi NNE 15.0 mph - N/A   Overcast
6:35 AM 44.1 °F 37.4 °F 43.7 °F 99% 30.09 in 5.0 mi NNE 13.8 mph - N/A   Overcast
6:55 AM 44.2 °F 37.6 °F 43.7 °F 98% 30.09 in 5.0 mi NNE 13.8 mph - N/A   Overcast
7:15 AM 44.4 °F 37.5 °F 43.7 °F 97% 30.10 in 5.0 mi NNE 15.0 mph 20.7 mph N/A   Overcast
7:35 AM 44.6 °F 37.8 °F 43.7 °F 97% 30.11 in 5.0 mi NNE 15.0 mph - N/A   Overcast
7:55 AM 44.2 °F 37.0 °F 43.5 °F 97% 30.11 in 5.0 mi NNE 16.1 mph - N/A   Overcast
8:15 AM 44.6 °F 37.2 °F 43.7 °F 97% 30.11 in 5.0 mi NNE 17.3 mph - N/A   Overcast
8:35 AM 44.8 °F 37.7 °F 43.9 °F 97% 30.11 in 5.0 mi NNE 16.1 mph - N/A   Overcast
8:55 AM 44.8 °F 37.4 °F 43.7 °F 96% 30.11 in 5.0 mi NNE 17.3 mph - N/A   Overcast
9:15 AM 45.5 °F 39.2 °F 44.1 °F 95% 30.12 in 5.0 mi North 13.8 mph - N/A   Overcast
9:35 AM 45.9 °F 39.7 °F 44.2 °F 94% 30.12 in 5.0 mi NNE 13.8 mph - N/A   Overcast
9:55 AM 45.9 °F 39.1 °F 44.1 °F 93% 30.11 in 5.0 mi NNE 16.1 mph 20.7 mph N/A   Overcast
10:15 AM 46.6 °F - 44.2 °F 92% 30.11 in 5.0 mi NNE 13.8 mph 19.6 mph N/A   Overcast
10:35 AM 47.5 °F - 44.8 °F 90% 30.11 in 7.0 mi NE 11.5 mph - N/A   Overcast
10:55 AM 49.6 °F - 46.0 °F 87% 30.10 in 7.0 mi NE 10.4 mph - N/A   Overcast
11:15 AM 52.0 °F - 47.3 °F 84% 30.09 in 7.0 mi NE 8.1 mph - N/A   Mostly Cloudy
11:35 AM 53.6 °F - 48.0 °F 81% 30.10 in 10.0 mi NE 3.5 mph - N/A   Mostly Cloudy
11:55 AM 55.6 °F - 49.5 °F 80% 30.10 in 10.0 mi ENE 4.6 mph - N/A   Mostly Cloudy
12:15 PM 57.4 °F - 50.4 °F 77% 30.09 in 10.0 mi North 5.8 mph - N/A   Mostly Cloudy
12:35 PM 58.1 °F - 50.9 °F 77% 30.08 in 10.0 mi NE 6.9 mph - N/A   Overcast
12:55 PM 58.3 °F - 50.7 °F 76% 30.08 in 10.0 mi NE 4.6 mph - N/A   Overcast
1:15 PM 56.7 °F - 49.1 °F 76% 30.08 in 10.0 mi North 6.9 mph - N/A   Overcast
1:35 PM 54.0 °F - 47.7 °F 79% 30.07 in 10.0 mi North 6.9 mph - N/A   Overcast
1:55 PM 54.3 °F - 48.4 °F 80% 30.06 in 10.0 mi NNW 5.8 mph - N/A   Overcast
2:15 PM 54.1 °F - 50.4 °F 87% 30.05 in 5.0 mi North 3.5 mph - N/A Rain Light Rain
2:35 PM 53.1 °F - 51.4 °F 94% 30.04 in 3.0 mi NNW 4.6 mph - N/A   Drizzle
2:55 PM 53.1 °F - 52.5 °F 98% 30.03 in 2.0 mi Calm Calm - 0.01 in   Drizzle
3:15 PM 56.3 °F - 55.6 °F 97% 30.01 in 7.0 mi Calm Calm - N/A   Overcast
3:35 PM 59.0 °F - 57.6 °F 95% 30.01 in 5.0 mi East 3.5 mph - N/A   Overcast
3:55 PM 57.6 °F - 56.3 °F 96% 30.00 in 5.0 mi SSE 4.6 mph - N/A   Overcast
4:15 PM 57.2 °F - 56.3 °F 97% 30.00 in 3.0 mi Calm Calm - 0.01 in   Heavy Drizzle
4:35 PM 57.4 °F - 57.0 °F 99% 30.00 in 2.0 mi Calm Calm - 0.03 in   Drizzle
4:55 PM 58.1 °F - 57.4 °F 97% 29.99 in 7.0 mi SSE 4.6 mph - 0.03 in   Overcast
5:15 PM 55.6 °F - 55.2 °F 99% 29.99 in 2.0 mi Calm Calm - 0.01 in   Heavy Drizzle
5:35 PM 58.1 °F - 57.7 °F 99% 29.99 in 10.0 mi Calm Calm - 0.03 in   Overcast
5:55 PM 56.8 °F - 56.5 °F 99% 29.98 in 7.0 mi Calm Calm - 0.03 in   Overcast
6:15 PM 55.0 °F - 54.7 °F 99% 29.98 in 5.0 mi Calm Calm - N/A   Overcast
6:35 PM 54.7 °F - 54.5 °F 99% 29.98 in 4.0 mi Calm Calm - N/A   Overcast
6:55 PM 55.2 °F - 55.0 °F 99% 29.96 in 3.0 mi SE 4.6 mph - 0.01 in   Light Drizzle
7:15 PM 54.3 °F - 54.0 °F 99% 29.95 in 4.0 mi SSE 5.8 mph - N/A   Overcast
7:35 PM 55.2 °F - 55.2 °F 100% 29.95 in 7.0 mi SSW 4.6 mph - N/A   Overcast
7:55 PM 55.4 °F - 55.4 °F 100% 29.95 in 7.0 mi South 8.1 mph - N/A   Overcast
8:15 PM 55.4 °F - 55.4 °F 100% 29.95 in 7.0 mi South 5.8 mph - N/A   Overcast
8:35 PM 54.3 °F - 54.1 °F 99% 29.95 in 7.0 mi SW 5.8 mph - N/A   Overcast
8:55 PM 51.1 °F - 50.9 °F 99% 29.95 in 5.0 mi WSW 4.6 mph - N/A   Overcast
9:15 PM 52.0 °F - 52.0 °F 100% 29.95 in 4.0 mi Calm Calm - N/A   Overcast
9:35 PM 52.0 °F - 52.0 °F 100% 29.95 in 1.5 mi NNW 4.6 mph - 0.01 in Rain Rain
9:55 PM 51.8 °F - 51.8 °F 100% 29.95 in 2.5 mi NW 5.8 mph - 0.01 in   Overcast
10:15 PM 52.0 °F - 52.0 °F 100% 29.95 in 2.5 mi WNW 3.5 mph - 0.01 in   Overcast
10:35 PM 52.7 °F - 52.7 °F 100% 29.95 in 2.5 mi WNW 5.8 mph - 0.01 in   Overcast
10:55 PM 52.7 °F - 52.7 °F 100% 29.95 in 2.0 mi WNW 5.8 mph - 0.01 in   Overcast
11:15 PM 52.0 °F - 52.0 °F 100% 29.95 in 2.0 mi WNW 8.1 mph - N/A   Overcast
11:35 PM 51.8 °F - 51.8 °F 100% 29.95 in 1.8 mi WNW 5.8 mph - N/A   Overcast
11:55 PM 51.4 °F - 51.4 °F 100% 29.95 in 5.0 mi West 9.2 mph - N/A   Overcast